TimeCST,TemperatureF,Dew PointF,Humidity,Sea Level PressureIn,VisibilityMPH,Wind Direction,Wind SpeedMPH,Gust SpeedMPH,PrecipitationIn,Events,Conditions,WindDirDegrees,DateUTC
12:10 AM,57.2,24.8,29,29.55,10.0,SSW,25.3,34.5,N/A,,Partly Cloudy,200,2013-02-18 06:10:00
12:50 AM,59.0,24.8,27,29.54,10.0,SSW,28.8,38.0,N/A,,Clear,200,2013-02-18 06:50:00
1:10 AM,59.0,24.8,27,29.53,10.0,SSW,27.6,35.7,N/A,,Scattered Clouds,200,2013-02-18 07:10:00
1:30 AM,57.2,26.6,31,29.52,10.0,SSW,29.9,36.8,N/A,,Scattered Clouds,200,2013-02-18 07:30:00
1:50 AM,57.2,28.4,33,29.51,10.0,SSW,31.1,42.6,N/A,,Partly Cloudy,200,2013-02-18 07:50:00
2:10 AM,57.2,28.4,33,29.51,10.0,SSW,26.5,38.0,N/A,,Clear,200,2013-02-18 08:10:00
2:30 AM,55.4,30.2,38,29.50,10.0,SSW,26.5,39.1,N/A,,Clear,210,2013-02-18 08:30:00
2:50 AM,55.4,32.0,41,29.50,10.0,SSW,27.6,35.7,N/A,,Clear,210,2013-02-18 08:50:00
3:10 AM,53.6,32.0,44,29.50,10.0,SW,24.2,31.1,N/A,,Clear,220,2013-02-18 09:10:00
3:30 AM,53.6,32.0,44,29.50,10.0,SW,25.3,35.7,N/A,,Clear,220,2013-02-18 09:30:00
3:50 AM,51.8,32.0,47,29.52,10.0,SW,20.7,29.9,N/A,,Clear,230,2013-02-18 09:50:00
4:10 AM,50.0,32.0,50,29.53,10.0,SW,19.6,26.5,N/A,,Clear,230,2013-02-18 10:10:00
4:30 AM,50.0,32.0,50,29.53,10.0,SW,21.9,31.1,N/A,,Clear,230,2013-02-18 10:30:00
4:50 AM,48.2,30.2,50,29.56,10.0,West,15.0,19.6,N/A,,Clear,260,2013-02-18 10:50:00
5:10 AM,46.4,26.6,46,29.56,10.0,West,12.7,-,N/A,,Scattered Clouds,260,2013-02-18 11:10:00
5:30 AM,44.6,23.0,43,29.58,10.0,West,16.1,-,N/A,,Clear,270,2013-02-18 11:30:00
5:50 AM,44.6,24.8,46,29.59,10.0,WNW,16.1,23.0,N/A,,Clear,290,2013-02-18 11:50:00
6:10 AM,42.8,26.6,53,29.59,10.0,WNW,15.0,21.9,N/A,,Clear,290,2013-02-18 12:10:00
6:30 AM,41.0,28.4,61,29.60,10.0,WNW,16.1,21.9,N/A,,Partly Cloudy,300,2013-02-18 12:30:00
6:50 AM,41.0,28.4,61,29.61,10.0,NW,19.6,23.0,N/A,,Scattered Clouds,310,2013-02-18 12:50:00
7:10 AM,41.0,30.2,65,29.63,10.0,NNW,18.4,26.5,N/A,,Partly Cloudy,330,2013-02-18 13:10:00
7:30 AM,41.0,30.2,65,29.64,10.0,NNW,20.7,28.8,N/A,,Clear,340,2013-02-18 13:30:00
7:50 AM,42.8,32.0,66,29.66,10.0,North,25.3,32.2,N/A,,Clear,350,2013-02-18 13:50:00
8:10 AM,44.6,30.2,57,29.68,10.0,NNW,28.8,34.5,N/A,,Clear,340,2013-02-18 14:10:00
8:30 AM,44.6,30.2,57,29.71,10.0,NNW,23.0,33.4,N/A,,Clear,340,2013-02-18 14:30:00
8:50 AM,46.4,30.2,53,29.73,10.0,NNW,27.6,35.7,N/A,,Clear,340,2013-02-18 14:50:00
9:10 AM,46.4,28.4,50,29.75,10.0,NNW,26.5,39.1,N/A,,Clear,340,2013-02-18 15:10:00
9:50 AM,46.4,26.6,46,29.79,10.0,North,31.1,41.4,N/A,,Clear,350,2013-02-18 15:50:00
10:10 AM,46.4,26.6,46,29.81,10.0,North,32.2,38.0,N/A,,Clear,350,2013-02-18 16:10:00
10:30 AM,48.2,26.6,43,29.81,10.0,NNW,33.4,41.4,N/A,,Clear,340,2013-02-18 16:30:00
10:50 AM,48.2,26.6,43,29.84,10.0,North,25.3,39.1,N/A,,Clear,350,2013-02-18 16:50:00
11:10 AM,48.2,26.6,43,29.85,10.0,North,28.8,38.0,N/A,,Clear,350,2013-02-18 17:10:00
11:30 AM,50.0,26.6,40,29.86,10.0,NNW,26.5,35.7,N/A,,Clear,330,2013-02-18 17:30:00
11:50 AM,50.0,26.6,40,29.88,10.0,North,23.0,33.4,N/A,,Partly Cloudy,350,2013-02-18 17:50:00
12:10 PM,50.0,26.6,40,29.88,10.0,NNW,27.6,36.8,N/A,,Clear,330,2013-02-18 18:10:00
12:30 PM,53.6,26.6,35,29.89,10.0,NNW,19.6,35.7,N/A,,Clear,330,2013-02-18 18:30:00
12:50 PM,51.8,26.6,38,29.89,10.0,NNW,27.6,39.1,N/A,,Clear,340,2013-02-18 18:50:00
1:10 PM,51.8,26.6,38,29.89,10.0,NNW,21.9,32.2,N/A,,Clear,340,2013-02-18 19:10:00
1:30 PM,51.8,26.6,38,29.89,10.0,NNW,20.7,32.2,N/A,,Clear,340,2013-02-18 19:30:00
1:50 PM,51.8,24.8,35,29.89,10.0,NNW,26.5,34.5,N/A,,Clear,330,2013-02-18 19:50:00
2:10 PM,53.6,24.8,33,29.90,10.0,NNW,21.9,31.1,N/A,,Clear,340,2013-02-18 20:10:00
2:30 PM,53.6,24.8,33,29.91,10.0,NNW,24.2,29.9,N/A,,Clear,340,2013-02-18 20:30:00
2:50 PM,53.6,23.0,30,29.91,10.0,NNW,23.0,35.7,N/A,,Clear,340,2013-02-18 20:50:00
3:10 PM,53.6,21.2,28,29.91,10.0,NNW,21.9,34.5,N/A,,Clear,330,2013-02-18 21:10:00
3:30 PM,51.8,19.4,28,29.92,10.0,NNW,23.0,32.2,N/A,,Clear,330,2013-02-18 21:30:00
3:50 PM,53.6,19.4,26,29.93,10.0,NNW,23.0,31.1,N/A,,Clear,330,2013-02-18 21:50:00
4:10 PM,51.8,19.4,28,29.94,10.0,NNW,15.0,28.8,N/A,,Clear,330,2013-02-18 22:10:00
4:30 PM,51.8,19.4,28,29.95,10.0,North,18.4,27.6,N/A,,Clear,350,2013-02-18 22:30:00
5:10 PM,50.0,19.4,30,29.97,10.0,North,21.9,27.6,N/A,,Clear,350,2013-02-18 23:10:00
5:30 PM,50.0,19.4,30,29.98,10.0,NNW,13.8,23.0,N/A,,Clear,340,2013-02-18 23:30:00
5:50 PM,48.2,17.6,30,29.99,10.0,NNW,13.8,21.9,N/A,,Clear,340,2013-02-18 23:50:00
6:10 PM,48.2,17.6,30,30.01,10.0,NNW,11.5,-,N/A,,Clear,340,2013-02-19 00:10:00
6:30 PM,46.4,19.4,34,30.02,10.0,NNW,8.1,-,N/A,,Clear,340,2013-02-19 00:30:00
6:50 PM,44.6,19.4,37,30.04,10.0,NNW,8.1,-,N/A,,Scattered Clouds,330,2013-02-19 00:50:00
7:10 PM,41.0,17.6,39,30.05,10.0,NW,6.9,-,N/A,,Mostly Cloudy,320,2013-02-19 01:10:00
7:30 PM,39.2,19.4,45,30.07,10.0,NW,8.1,-,N/A,,Overcast,310,2013-02-19 01:30:00
7:50 PM,39.2,19.4,45,30.08,10.0,NNW,8.1,-,N/A,,Mostly Cloudy,330,2013-02-19 01:50:00
8:10 PM,37.4,17.6,45,30.08,10.0,NNW,6.9,-,N/A,,Mostly Cloudy,330,2013-02-19 02:10:00
8:30 PM,37.4,17.6,45,30.09,10.0,NW,8.1,-,N/A,,Mostly Cloudy,320,2013-02-19 02:30:00
8:50 PM,37.4,17.6,45,30.10,10.0,NNW,5.8,-,N/A,,Mostly Cloudy,330,2013-02-19 02:50:00
9:10 PM,35.6,17.6,48,30.11,10.0,NNW,4.6,-,N/A,,Scattered Clouds,330,2013-02-19 03:10:00
9:30 PM,32.0,17.6,55,30.11,10.0,NNW,4.6,-,N/A,,Scattered Clouds,330,2013-02-19 03:30:00
9:50 PM,35.6,17.6,48,30.12,10.0,Calm,Calm,-,N/A,,Scattered Clouds,0,2013-02-19 03:50:00
10:10 PM,32.0,17.6,55,30.12,10.0,NE,4.6,-,N/A,,Partly Cloudy,50,2013-02-19 04:10:00
10:30 PM,33.8,17.6,52,30.12,10.0,NNE,8.1,-,N/A,,Partly Cloudy,30,2013-02-19 04:30:00
10:50 PM,33.8,17.6,52,30.13,10.0,NE,9.2,-,N/A,,Partly Cloudy,40,2013-02-19 04:50:00
11:10 PM,33.8,17.6,52,30.14,10.0,NNE,9.2,-,N/A,,Clear,20,2013-02-19 05:10:00
11:30 PM,32.0,17.6,55,30.15,10.0,North,6.9,-,N/A,,Partly Cloudy,10,2013-02-19 05:30:00
11:50 PM,32.0,17.6,55,30.16,10.0,North,5.8,-,N/A,,Clear,360,2013-02-19 05:50:00